Dickinson, ND

5:51 PM MST on December 05, 2016 (GMT -0700)
Dickinson Municipal

Weather History for KDIK - February, 2013

Change the Weather History Date:

Monday, February 18, 2013

  Actual Average Record
Temperature  
Mean Temperature 11 °F 21 °F  
Max Temperature 21 °F 32 °F 61 °F (1983)
Min Temperature 0 °F 11 °F -40 °F (1910)
Degree Days  
Heating Degree Days 54 44  
Month to date heating degree days 688 823  
Since 1 July heating degree days 5568 5870  
Cooling Degree Days 0 0  
Month to date cooling degree days 0 0  
Year to date cooling degree days 0 0  
Moisture  
Dew Point 7 °F    
Average Humidity 78    
Maximum Humidity 88    
Minimum Humidity 67    
Precipitation  
Precipitation T in 0.01 in 0.37 in (1952)
Month to date precipitation T 0.17  
Year to date precipitation 0.08 0.47  
Sea Level Pressure  
Sea Level Pressure 30.05 in    
Wind  
Wind Speed 17 mph (NNW)    
Max Wind Speed 31 mph    
Max Gust Speed 40 mph    
Visibility 8 miles    
Events Snow    
T = Trace of Precipitation, MM = Missing Value Source: NWS Daily Summary

Daily Weather History Graph

Daily Weather History Graph

Search for Another Location

Airport or City:

Trip Planner

Search our weather history database for the weather conditions in past years. The results will help you decide how hot, cold, wet, or windy it might be!

Date:

Astronomy

Feb. 18, 2013 Rise Set
Actual Time 6:49 AM MST 5:21 PM MST
Civil Twilight 6:18 AM MST 5:52 PM MST
Nautical Twilight 5:43 AM MST 6:27 PM MST
Astronomical Twilight 5:08 AM MST 7:02 PM MST
Moon 10:57 AM MST (2/18) 1:42 AM MST (2/18)
Length of Visible Light 11h 33m
Length of Day
10h 31m
First Quarter, 59% of the Moon is Illuminated
Feb 18
First Quarter
Feb 25
Full
Mar 4
Last Quarter
Mar 11
New
Mar 19
First Quarter

Hourly Weather History & Observations

Time (MST) Temp. Windchill Dew Point Humidity Pressure Visibility Wind Dir Wind Speed Gust Speed Precip Events Conditions
12:56 AM 19.0 °F 2.4 °F 14.0 °F 81% 29.84 in 9.0 mi NW 21.9 mph 33.4 mph 0.00 in   Overcast
1:56 AM 18.0 °F 1.3 °F 12.9 °F 81% 29.87 in 10.0 mi NW 20.7 mph 34.5 mph 0.00 in   Mostly Cloudy
2:04 AM 17.6 °F 0.1 °F 12.2 °F 79% 29.79 in 10.0 mi NW 23.0 mph 29.9 mph N/A   Mostly Cloudy
2:13 AM 17.6 °F 1.3 °F 12.2 °F 79% 29.80 in 8.0 mi NW 19.6 mph 32.2 mph 0.00 in Snow Light Snow
2:37 AM 17.6 °F 1.7 °F 12.2 °F 79% 29.81 in 9.0 mi NW 18.4 mph 31.1 mph 0.00 in   Overcast
2:56 AM 18.0 °F 0.9 °F 12.0 °F 78% 29.91 in 6.0 mi NW 21.9 mph 31.1 mph 0.00 in Snow Light Snow
4:56 AM 16.0 °F -0.9 °F 12.0 °F 84% 29.96 in 2.0 mi NNW 19.6 mph 25.3 mph 0.00 in Snow Light Snow
5:18 AM 15.8 °F -3.1 °F 10.4 °F 79% 29.88 in 3.0 mi NW 25.3 mph 35.7 mph 0.00 in Snow Light Snow
5:56 AM 15.1 °F -1.1 °F 10.0 °F 80% 30.00 in 4.0 mi NNW 17.3 mph 26.5 mph 0.00 in Snow Light Snow
6:19 AM 14.0 °F -2.5 °F 8.6 °F 79% 29.91 in 7.0 mi NW 17.3 mph 26.5 mph 0.00 in Snow Light Snow
6:30 AM 14.0 °F -3.0 °F 8.6 °F 79% 29.91 in 8.0 mi NNW 18.4 mph - 0.00 in Snow Light Snow
6:56 AM 14.0 °F -2.5 °F 9.0 °F 80% 30.02 in 9.0 mi NNW 17.3 mph 25.3 mph 0.00 in Snow Light Snow
7:36 AM 14.0 °F -1.4 °F 8.6 °F 79% 29.94 in 7.0 mi NNW 15.0 mph 21.9 mph 0.00 in Snow Light Snow
7:51 AM 12.2 °F -3.7 °F 8.6 °F 85% 29.95 in 10.0 mi NNW 15.0 mph - 0.00 in   Mostly Cloudy
7:56 AM 14.0 °F -2.0 °F 8.1 °F 77% 30.06 in 10.0 mi NNW 16.1 mph - 0.00 in   Mostly Cloudy
8:06 AM 14.0 °F -3.4 °F 8.6 °F 79% 29.95 in 10.0 mi NW 19.6 mph 24.2 mph N/A   Partly Cloudy
8:43 AM 15.8 °F -0.6 °F 8.6 °F 73% 29.96 in 10.0 mi NW 18.4 mph 24.2 mph N/A   Mostly Cloudy
8:56 AM 15.1 °F -1.1 °F 9.0 °F 77% 30.08 in 10.0 mi NW 17.3 mph 25.3 mph N/A   Mostly Cloudy
9:19 AM 14.0 °F -3.4 °F 6.8 °F 73% 29.97 in 10.0 mi NNW 19.6 mph 27.6 mph N/A   Overcast
9:56 AM 16.0 °F -2.1 °F 8.1 °F 71% 30.10 in 5.0 mi NW 23.0 mph - 0.00 in Snow Light Snow
10:29 AM 17.6 °F 1.3 °F 8.6 °F 68% 29.99 in 9.0 mi NNW 19.6 mph 27.6 mph 0.00 in   Overcast
10:56 AM 16.0 °F -1.7 °F 8.1 °F 71% 30.12 in 7.0 mi NW 21.9 mph 26.5 mph 0.00 in Snow Light Snow
11:52 AM 15.8 °F -0.6 °F 8.6 °F 73% 30.01 in 9.0 mi NW 18.4 mph 24.2 mph 0.00 in Snow Light Snow
11:56 AM 16.0 °F 1.1 °F 8.1 °F 71% 30.13 in 8.0 mi NNW 15.0 mph 24.2 mph 0.00 in Snow Light Snow
12:56 PM 17.1 °F -0.3 °F 9.0 °F 71% 30.14 in 5.0 mi NW 21.9 mph 27.6 mph 0.00 in Snow Light Snow
1:56 PM 17.1 °F 1.0 °F 9.0 °F 71% 30.16 in 9.0 mi NW 18.4 mph - 0.00 in Snow Light Snow
2:23 PM 15.8 °F -1.9 °F 8.6 °F 73% 30.04 in 10.0 mi NNW 21.9 mph 25.3 mph 0.00 in   Overcast
2:44 PM 15.8 °F -0.2 °F 8.6 °F 73% 30.04 in 8.0 mi NNW 17.3 mph 24.2 mph 0.00 in Snow Light Snow
2:56 PM 16.0 °F -0.9 °F 8.1 °F 71% 30.18 in 7.0 mi NW 19.6 mph 25.3 mph 0.00 in Snow Light Snow
4:56 PM 12.0 °F -4.5 °F 5.0 °F 73% 30.23 in 10.0 mi NNW 16.1 mph - N/A   Overcast
5:56 PM 10.0 °F -5.9 °F 3.0 °F 73% 30.25 in 10.0 mi NNW 13.8 mph - 0.00 in   Overcast
7:56 PM 7.0 °F -11.0 °F 1.0 °F 77% 30.27 in 10.0 mi North 16.1 mph - 0.00 in   Overcast
8:56 PM 5.0 °F -11.6 °F -0.9 °F 76% 30.31 in 9.0 mi NNE 12.7 mph - 0.00 in   Overcast
9:33 PM 3.2 °F -11.3 °F -2.2 °F 78% 30.16 in 10.0 mi NNE 9.2 mph - N/A   Scattered Clouds
9:56 PM 1.9 °F -11.8 °F -2.0 °F 83% 30.34 in 10.0 mi North 8.1 mph - N/A   Partly Cloudy
10:56 PM 1.0 °F -12.9 °F -2.9 °F 83% 30.35 in 10.0 mi NNE 8.1 mph - N/A   Clear
11:56 PM -0.0 °F -11.6 °F -4.0 °F 83% 30.37 in 10.0 mi NNE 5.8 mph - N/A   Clear